Weather Roundup
Issued by NWS Chicago, IL

Home | Current Version | Previous Version | Graphics & Text | Print | Product List | Glossary On
Versions: 1 2 3 4 5 6 7 8 9 10 11 12 13 14 15 16 17 18 19 20 21 22 23 24 25 26 27 28 29 30 31 32 33 34 35 36 37 38 39 40 41 42 43 44 45 46 47 48 49 50
000
NZUS59 KLOT 251302
HRRLOT

CHICAGO AREA WEATHER ROUNDUP
NATIONAL WEATHER SERVICE CHICAGO/ROMEOVILLE IL
800 AM CDT SAT MAR 25 2017

NOTE: "FAIR" INDICATES FEW OR NO CLOUDS BELOW 12,000 FEET WITH NO
SIGNIFICANT WEATHER AND/OR OBSTRUCTIONS TO VISIBILITY.

* THESE STATIONS ARE NOT UNDER NWS QUALITY CONTROL. THEY ALSO MAY NOT
  REPORT WEATHER SUCH AS PRECIPITATION OR FOG.

ILZ005-006-012>014-019>023-251400-
NORTHEAST ILLINOIS

CITY           SKY/WX    TMP DP  RH WIND       PRES   REMARKS
OHARE          DRIZZLE   42  39  89 NE14      30.05S
MIDWAY         LGT RAIN  42  41  96 NE12      30.04F FOG
AURORA         RAIN      42  40  92 NE18      30.01F FOG
LANSING*         N/A    N/A N/A N/A NE6       30.04F
JOLIET*        HVY RAIN  43  42  98 NE10      30.02F
WAUKEGAN       LGT RAIN  38  38 100 NE15G24   30.08R FOG
DUPAGE AIRPORT LGT RAIN  41  41 100 NE14      30.03F FOG
WHEELING       LGT RAIN  39  39 100 NE10G21   30.08S FOG
MORRIS*        RAIN      42  41  95 NE7       29.98F
NORTHERLY ISL    N/A     39  38  96 N14         N/A
$$

WIZ051-052-058>065-066-070>072-251400-
SOUTHEAST WISCONSIN

CITY           SKY/WX    TMP DP  RH WIND       PRES   REMARKS
MILWAUKEE      CLOUDY    38  36  92 NE16G22   30.14R
KENOSHA*       LGT RAIN  39  37  92 NE16      30.10R
RACINE*        CLOUDY    38  36  92 NE13      30.14R
WAUKESHA       CLOUDY    36  34  93 NE13G23   30.13R FOG
WEST BEND      CLOUDY    36  36 100 NE12G20   30.16R
$$

INZ001>003-010>013-019-020-251400-
NORTHWEST INDIANA

CITY           SKY/WX    TMP DP  RH WIND       PRES   REMARKS
GARY*          LGT RAIN  41  39  93 N7        30.05S FOG
MICHIGAN CITY* NOT AVBL
RENSSELAER*    NOT AVBL
VALPARAISO     LGT RAIN  47  46  97 NE8       30.04F FOG
$$

LMZ740>746-251400-
SOUTHERN LAKE MICHIGAN

STATION/POSITION TIME  SKY/WX   TEMP WIND        PRES    VSBY
                                AIR  DIR/SP/G
                 (UTC)          (F)  (DEG/KT/KT) (MB)    (MI)
HARRISON CRIB    1240                 10/ 13/ 14   N/A
BURNHAM HARBOR   1300                360/ 13/ 15   N/A
CALUMET HARBOR   1230                340/ 11/ 13 1017.0F
BURNS HARBOR     1240            39  330/  2/  5 1018.3R
MICHIGAN CITY    1240            39  240/  5/  7   N/A
$$

ABBREVIATIONS USED IN REMARKS
   TC - TEMPERATURE IN CELSIUS
  WCI - WIND CHILL INDEX
   HX - HEAT INDEX
  VSB - VISIBILITY
$$




USA.gov is the U.S. government's official web portal to all federal, state and local government web resources and services.